Temp
16 17 17 18 22 23 25 24 27 25 24 23 23 25 25 21 23 21 16 16 17 17 16 17 17 17 16 16 16 16 16 17 17 17 17 17 16 16 16 16 15 15 15 15 16 16 16 16 15
15 17 17 21 22 23 25 25 24 25 23 22 22 22 24 21 18 17 17 17 17 17 17 16 16 16 16 16 16 16 16 16 16 16 17 17 17 16 16 16 15 15 15 15 15 16 16 16 15
14 17 19 22 23 25 25 25 25 22 21 22 21 21 21 19 17 16 16 16 17 17 16 16 16 16 16 16 16 16 16 16 16 16 16 16 16 16 16 16 16 15 15 15 15 15 16 16 16
16 17 19 21 23 22 24 25 23 22 21 21 22 21 17 16 17 15 15 16 16 16 16 16 16 16 16 16 16 16 16 16 16 16 16 16 16 16 16 16 16 15 15 15 15 15 15 16 16
17 20 22 22 23 21 24 23 23 24 23 22 21 20 18 15 15 16 15 16 15 16 15 16 16 16 15 16 16 16 15 15 16 16 15 16 16 16 16 16 16 15 15 15 15 16 16 16 15
18 21 22 22 22 21 22 21 23 23 22 21 22 21 18 15 15 15 16 16 16 16 16 16 16 16 15 15 16 16 16 15 15 15 15 16 15 16 16 15 15 15 16 16 15 15 16 16 16
19 21 24 25 22 21 21 20 22 23 22 21 21 22 17 15 14 15 15 15 15 16 16 16 16 16 16 16 16 16 15 16 15 15 15 15 15 15 15 15 15 15 15 15 15 15 15 16 16
19 21 23 24 22 22 20 20 19 22 21 18 18 22 19 16 15 15 15 15 15 15 15 15 15 15 15 15 15 16 16 16 16 15 15 15 15 15 15 15 16 15 15 15 15 15 15 14 15
16 21 22 23 23 21 19 20 18 17 19 19 18 18 17 15 16 15 15 15 15 15 16 16 16 16 15 15 15 15 15 15 15 15 15 15 15 14 14 15 15 15 15 15 15 15 15 15 14
19 21 22 20 20 21 20 21 19 20 19 19 17 15 15 15 15 14 14 15 15 15 16 16 16 16 16 16 16 16 15 15 15 15 15 14 14 14 14 14 14 15 15 15 15 15 15 14 14
17 20 17 16 17 19 19 19 18 21 20 20 19 17 15 15 15 14 14 15 16 16 16 16 16 16 16 16 16 15 14 16 15 14 14 14 15 15 14 15 15 15 15 15 15 15 15 15 14
16 15 16 15 14 17 19 18 19 20 19 17 17 17 15 15 15 15 14 14 15 15 15 15 15 15 15 15 14 13 13 13 15 14 13 14 13 14 14 14 14 14 14 14 14 14 14 14 14
17 15 14 14 14 15 15 18 19 18 16 15 15 14 15 15 15 14 15 15 15 15 15 15 15 15 14 14 14 14 13 12 12 14 14 14 14 13 13 13 14 14 14 14 14 14 14 14 15
15 15 14 14 14 14 17 17 15 18 16 15 15 15 15 15 15 14 14 13 14 14 14 14 14 14 14 14 13 13 13 13 12 13 13 14 13 14 14 14 14 13 13 13 13 14 13 13 13
15 15 16 15 14 15 13 17 17 18 15 16 15 15 15 14 14 13 13 13 13 13 14 13 13 13 13 13 13 13 13 12 12 12 11 12 11 11 11 11 12 13 14 13 13 12 13 13 14
17 18 17 15 15 14 15 20 20 16 16 16 16 16 15 14 14 13 12 13 13 13 13 13 13 13 12 12 12 12 12 12 11 11 10 10 10 10 10 10 10 11 11 11 12 12 12 12 13
17 17 17 16 14 15 16 19 18 16 16 17 18 17 16 15 14 13 12 11 11 11 11 12 12 12 11 11 11 10 10 8 8 7 8 8 8 10 10 10 9 10 10 10 11 11 11 11 11
18 18 18 18 15 15 16 17 19 16 15 17 18 18 17 16 15 14 12 11 11 11 12 12 11 11 11 11 10 9 8 7 7 7 7 7 7 9 9 9 9 8 9 9 10 10 11 11 11
19 19 19 16 13 14 17 18 18 18 18 17 17 18 18 18 16 13 12 10 10 11 11 11 11 11 11 10 9 10 9 9 9 9 8 7 7 8 9 8 8 8 8 8 9 10 10 10 10
17 18 17 14 13 13 16 16 18 19 19 19 18 19 19 18 16 12 10 9 9 10 10 11 11 10 10 9 9 9 9 8 7 8 8 8 7 7 8 7 7 7 8 8 8 9 9 9 10
15 17 15 14 14 14 14 18 21 21 18 18 16 15 15 15 14 11 9 9 9 9 10 10 10 10 10 10 10 9 8 7 6 6 8 8 8 7 8 8 8 7 7 8 8 8 9 9 9
15 12 13 13 14 14 14 14 19 21 21 17 16 15 14 13 12 11 10 9 9 9 11 11 11 10 10 10 9 9 7 7 6 6 7 7 8 8 6 8 8 8 8 8 8 8 8 9 9
12 11 12 12 14 10 14 12 16 19 18 20 19 18 15 13 12 11 10 10 9 11 11 11 10 10 10 9 8 8 8 6 6 7 7 8 8 8 8 7 9 8 7 7 8 8 8 8 8
11 12 12 12 14 11 15 12 14 17 18 17 17 16 14 13 12 11 10 10 11 11 11 11 10 10 10 9 8 8 8 7 6 6 7 8 8 8 8 8 8 9 7 8 7 8 8 8 8
11 13 13 13 11 15 11 10 13 17 17 16 17 15 14 13 12 11 11 11 12 12 11 11 11 10 10 9 9 9 8 8 7 7 7 7 8 8 8 8 8 8 8 7 7 8 8 8 8
12 12 12 13 15 15 11 11 14 15 14 13 15 14 13 12 11 11 11 11 12 12 11 11 11 10 10 10 9 9 8 7 7 7 7 6 7 7 8 8 8 8 8 7 7 7 8 7 7
11 12 11 8 9 11 15 13 16 15 15 15 13 13 13 13 12 11 11 12 12 12 12 12 11 11 10 10 9 9 8 8 7 7 7 6 6 7 7 7 7 6 7 7 6 8 7 7 7
11 11 11 11 11 13 16 15 11 7 13 15 14 14 14 13 12 12 11 12 12 12 12 12 12 11 10 10 10 9 8 8 8 7 7 6 7 7 7 6 5 4 5 7 7 7 6 6 7
10 11 11 11 12 13 15 16 10 11 14 13 14 13 13 12 12 12 11 12 12 12 11 11 11 11 11 10 10 9 8 8 8 8 8 7 7 6 6 6 6 5 6 7 7 8 7 7 7
12 12 13 12 12 12 12 12 15 14 13 12 13 14 14 13 13 13 13 12 12 11 11 10 10 10 11 10 10 10 9 8 8 8 8 8 7 6 5 5 6 6 7 7 7 7 7 7 7
Height
1504 1509 1514 1517 1516 1506 1498 1500 1490 1500 1502 1507 1507 1506 1507 1514 1515 1525 1530 1530 1532 1533 1536 1535 1535 1536 1537 1537 1538 1538 1539 1539 1539 1539 1539 1539 1538 1538 1538 1538 1538 1538 1538 1538 1538 1538 1538 1537 1538
1505 1510 1515 1512 1510 1507 1495 1493 1500 1499 1505 1509 1511 1512 1512 1521 1524 1528 1532 1532 1533 1534 1536 1535 1536 1536 1537 1537 1538 1538 1539 1539 1539 1539 1539 1539 1539 1539 1539 1538 1539 1539 1539 1539 1539 1539 1538 1538 1538
1506 1512 1513 1507 1500 1495 1493 1495 1494 1505 1510 1510 1513 1514 1517 1524 1527 1529 1532 1533 1534 1536 1536 1536 1536 1537 1537 1538 1538 1539 1539 1539 1539 1539 1539 1539 1539 1539 1538 1538 1538 1539 1539 1539 1539 1538 1538 1538 1537
1507 1512 1511 1505 1498 1499 1491 1492 1501 1508 1511 1512 1512 1517 1523 1525 1528 1529 1530 1532 1534 1535 1535 1535 1536 1537 1537 1539 1539 1539 1539 1539 1539 1539 1539 1539 1539 1538 1538 1538 1538 1538 1538 1538 1538 1538 1537 1537 1537
1507 1506 1500 1500 1495 1504 1496 1500 1504 1504 1508 1512 1513 1518 1524 1527 1527 1528 1530 1532 1534 1534 1534 1535 1536 1537 1537 1537 1538 1538 1538 1538 1538 1539 1539 1539 1539 1539 1538 1537 1537 1537 1537 1537 1537 1536 1536 1536 1536
1504 1500 1495 1498 1498 1503 1505 1507 1504 1506 1510 1514 1514 1518 1525 1526 1529 1530 1531 1532 1533 1533 1534 1535 1536 1537 1537 1538 1537 1537 1537 1537 1538 1538 1538 1538 1538 1538 1537 1536 1536 1536 1536 1535 1535 1535 1535 1535 1535
1497 1495 1487 1483 1499 1503 1505 1509 1507 1508 1511 1515 1517 1516 1526 1528 1527 1529 1532 1533 1533 1534 1534 1535 1536 1537 1537 1537 1537 1537 1537 1537 1536 1536 1536 1536 1536 1536 1535 1535 1535 1535 1534 1534 1534 1533 1533 1533 1533
1496 1494 1487 1482 1496 1499 1507 1509 1512 1510 1514 1518 1519 1517 1524 1527 1527 1529 1531 1533 1533 1534 1534 1535 1536 1536 1536 1536 1536 1536 1536 1536 1535 1535 1534 1534 1534 1533 1533 1533 1533 1533 1532 1532 1532 1531 1531 1531 1531
1498 1492 1491 1490 1491 1500 1506 1508 1514 1514 1516 1519 1521 1521 1524 1525 1527 1529 1531 1533 1533 1533 1533 1534 1534 1535 1535 1535 1534 1534 1534 1534 1534 1533 1533 1532 1531 1531 1531 1530 1530 1529 1529 1529 1529 1528 1528 1528 1528
1494 1488 1489 1499 1499 1501 1506 1506 1511 1515 1517 1519 1521 1522 1523 1525 1527 1529 1531 1532 1532 1532 1532 1532 1533 1533 1533 1533 1532 1532 1531 1530 1531 1530 1530 1530 1530 1529 1528 1528 1526 1526 1525 1525 1525 1525 1525 1525 1524
1499 1492 1503 1508 1508 1506 1509 1511 1513 1511 1514 1516 1519 1522 1524 1526 1527 1528 1530 1530 1531 1530 1530 1530 1530 1530 1530 1530 1529 1529 1528 1527 1527 1527 1526 1526 1525 1525 1526 1524 1523 1522 1522 1521 1521 1520 1520 1520 1520
1503 1507 1508 1513 1514 1513 1511 1513 1513 1513 1515 1518 1520 1522 1523 1525 1526 1527 1528 1528 1528 1528 1528 1528 1528 1527 1527 1527 1527 1526 1526 1524 1523 1522 1522 1521 1521 1521 1521 1521 1521 1519 1518 1518 1518 1518 1518 1518 1517
1502 1510 1512 1514 1516 1517 1517 1515 1513 1515 1516 1517 1519 1520 1522 1524 1525 1525 1525 1525 1525 1526 1525 1525 1525 1525 1524 1524 1523 1522 1522 1521 1519 1518 1517 1517 1516 1515 1515 1515 1515 1515 1513 1514 1513 1513 1512 1513 1513
1506 1510 1514 1516 1518 1519 1518 1517 1517 1514 1515 1516 1517 1519 1521 1522 1523 1523 1522 1523 1523 1523 1523 1523 1522 1522 1521 1520 1519 1518 1517 1516 1514 1513 1512 1512 1511 1510 1509 1508 1508 1508 1509 1508 1506 1506 1507 1506 1506
1508 1512 1514 1518 1520 1520 1521 1517 1513 1513 1514 1515 1516 1517 1519 1519 1519 1520 1520 1520 1520 1520 1520 1519 1519 1518 1517 1515 1514 1513 1511 1510 1509 1507 1506 1505 1505 1503 1502 1501 1501 1501 1502 1502 1501 1499 1500 1500 1499
1507 1509 1512 1518 1521 1521 1522 1506 1507 1512 1513 1513 1514 1515 1515 1516 1517 1517 1517 1517 1517 1517 1517 1516 1514 1513 1512 1511 1509 1508 1506 1505 1503 1502 1500 1499 1498 1496 1495 1495 1494 1495 1495 1495 1494 1494 1492 1493 1492
1508 1508 1510 1517 1521 1522 1519 1508 1509 1511 1511 1510 1510 1511 1512 1512 1514 1514 1514 1514 1515 1515 1514 1513 1511 1510 1508 1506 1504 1502 1500 1499 1498 1497 1495 1493 1492 1490 1488 1487 1487 1489 1489 1489 1489 1489 1488 1487 1486
1503 1506 1508 1509 1520 1520 1515 1509 1506 1508 1508 1506 1505 1505 1506 1508 1510 1512 1512 1511 1512 1511 1511 1511 1509 1507 1505 1503 1501 1499 1498 1497 1494 1492 1492 1490 1487 1485 1483 1481 1481 1482 1482 1482 1483 1483 1483 1482 1481
1494 1501 1504 1516 1524 1523 1510 1505 1501 1502 1501 1501 1500 1500 1500 1502 1505 1506 1508 1508 1508 1508 1508 1508 1507 1505 1503 1500 1498 1496 1494 1491 1489 1487 1486 1485 1484 1482 1480 1478 1477 1477 1477 1477 1478 1478 1477 1477 1477
1505 1505 1510 1519 1523 1523 1509 1503 1497 1495 1491 1492 1493 1493 1495 1498 1501 1501 1502 1504 1505 1506 1506 1505 1504 1502 1500 1497 1494 1491 1489 1487 1485 1484 1483 1482 1481 1479 1478 1476 1476 1475 1474 1474 1474 1473 1473 1472 1473
1514 1508 1515 1521 1521 1521 1518 1495 1482 1481 1486 1487 1489 1491 1493 1494 1496 1498 1500 1502 1503 1503 1503 1503 1502 1500 1498 1495 1492 1489 1487 1484 1482 1481 1479 1479 1478 1477 1476 1474 1473 1472 1472 1471 1470 1470 1470 1468 1468
1514 1526 1524 1525 1522 1523 1518 1516 1486 1479 1477 1483 1485 1487 1490 1492 1494 1496 1498 1500 1500 1500 1500 1500 1500 1499 1496 1494 1491 1487 1484 1482 1480 1478 1476 1476 1475 1473 1473 1472 1471 1470 1469 1469 1469 1468 1467 1465 1463
1528 1529 1528 1527 1522 1534 1516 1528 1493 1478 1479 1475 1478 1483 1488 1490 1493 1495 1496 1497 1498 1498 1498 1498 1497 1496 1494 1492 1489 1486 1483 1480 1477 1476 1474 1473 1472 1471 1470 1468 1467 1467 1467 1466 1466 1465 1464 1463 1460
1530 1528 1527 1527 1524 1533 1510 1522 1500 1483 1480 1480 1482 1484 1487 1489 1491 1493 1493 1494 1495 1495 1495 1495 1495 1493 1492 1489 1487 1485 1482 1478 1475 1473 1471 1469 1468 1467 1467 1465 1464 1463 1463 1462 1462 1461 1460 1460 1458
1530 1526 1527 1528 1534 1512 1525 1528 1498 1480 1481 1483 1483 1485 1486 1488 1489 1490 1491 1491 1492 1492 1493 1492 1492 1490 1489 1487 1485 1483 1480 1477 1473 1471 1469 1467 1465 1463 1463 1462 1460 1459 1459 1459 1458 1456 1455 1455 1452
1528 1530 1531 1530 1514 1511 1524 1514 1488 1482 1482 1483 1484 1484 1485 1486 1486 1487 1488 1489 1489 1489 1490 1489 1488 1487 1486 1484 1482 1480 1478 1475 1472 1470 1467 1464 1462 1461 1460 1458 1457 1456 1456 1455 1455 1453 1452 1450 1448
1534 1534 1538 1545 1537 1532 1500 1496 1480 1480 1480 1480 1482 1483 1484 1485 1485 1486 1486 1486 1486 1486 1486 1485 1484 1483 1482 1481 1479 1478 1476 1474 1471 1469 1466 1463 1460 1458 1456 1455 1454 1453 1453 1452 1452 1450 1448 1446 1445
1536 1537 1535 1535 1535 1521 1491 1491 1498 1497 1482 1478 1480 1481 1483 1483 1484 1484 1483 1483 1482 1482 1482 1481 1479 1478 1477 1477 1476 1475 1473 1471 1468 1466 1464 1461 1458 1456 1453 1452 1452 1451 1450 1450 1449 1448 1446 1444 1442
1537 1533 1535 1534 1528 1520 1505 1487 1489 1488 1483 1483 1481 1482 1482 1482 1482 1481 1480 1480 1479 1478 1477 1475 1473 1473 1472 1472 1471 1471 1469 1468 1466 1464 1462 1459 1456 1454 1450 1450 1450 1449 1448 1448 1447 1446 1444 1443 1441
1526 1523 1522 1525 1523 1522 1520 1501 1480 1482 1483 1483 1482 1481 1481 1481 1480 1480 1479 1477 1475 1473 1470 1468 1466 1465 1466 1466 1466 1466 1465 1464 1463 1461 1459 1457 1454 1452 1449 1449 1448 1448 1447 1446 1445 1443 1442 1440 1438
Wind_Speed
17 18 10 6 6 5 11 6 5 9 9 4 5 3 11 15 9 4 7 6 6 4 4 2 1 2 3 3 3 2 2 2 2 3 4 3 1 0 1 2 1 3 2 4 5 3 2 2 2
16 19 9 8 6 8 8 9 10 12 11 10 10 5 4 6 11 12 6 4 6 4 4 5 2 2 3 4 4 4 4 3 3 3 3 4 3 2 2 3 3 3 6 2 5 5 4 4 4
15 15 8 5 5 10 9 10 12 12 10 7 5 8 4 6 9 6 5 5 4 2 4 5 3 1 2 4 4 5 6 5 4 4 4 4 3 4 5 4 5 5 8 6 6 7 5 6 6
15 10 3 6 9 4 5 10 15 13 8 4 8 8 7 6 4 7 7 8 5 6 8 7 3 1 1 4 5 6 7 7 7 7 6 5 5 5 6 6 6 7 10 9 8 8 6 6 7
16 12 6 7 6 3 7 10 15 11 8 10 4 6 7 5 9 12 10 9 7 8 6 3 1 1 1 3 5 7 8 8 8 8 8 8 7 7 6 7 8 9 11 11 10 8 7 6 8
8 12 9 11 9 7 7 7 9 9 9 7 8 10 7 8 8 11 10 6 5 5 3 2 3 4 5 6 7 7 8 9 9 10 10 10 10 9 9 8 9 9 11 11 10 9 8 8 9
11 7 13 12 12 9 9 7 9 9 10 6 4 5 7 9 9 13 10 7 7 5 3 3 4 7 8 9 11 11 10 11 12 13 13 13 13 13 12 11 12 12 12 13 13 13 11 10 11
3 4 4 9 13 8 10 8 5 5 6 5 1 4 7 10 11 12 10 8 8 8 8 8 8 9 9 9 12 12 15 15 14 14 14 15 16 16 16 16 15 15 15 15 15 16 16 15 13
2 4 9 7 14 9 13 8 5 3 9 4 2 4 10 11 12 9 7 5 4 7 7 8 9 11 12 13 16 15 16 16 16 18 16 16 17 15 17 17 17 18 17 18 18 18 18 19 19
3 4 5 8 8 11 13 10 10 7 9 6 7 6 9 10 9 6 5 4 5 8 9 10 12 12 13 14 16 16 18 19 18 19 19 16 15 14 17 18 21 20 21 21 22 21 21 21 22
3 2 6 4 5 10 9 7 5 7 8 7 9 10 10 9 7 6 5 8 9 10 11 12 12 13 13 14 15 12 14 17 17 16 18 19 22 24 17 22 22 23 20 22 22 23 22 24 24
6 6 4 4 3 3 8 6 5 6 5 5 5 9 9 9 7 6 5 8 10 10 12 12 13 14 15 15 12 11 12 14 18 17 18 19 16 15 16 17 19 21 21 21 21 22 20 21 22
10 7 8 7 6 4 2 4 1 6 5 4 5 8 9 9 8 7 10 10 11 11 12 13 13 14 15 16 17 17 17 16 17 21 22 21 22 22 20 19 18 20 25 27 24 22 23 25 25
10 13 10 6 5 4 2 3 2 8 7 6 7 10 11 10 10 9 11 9 10 11 13 13 15 16 18 20 21 22 23 22 24 25 26 26 26 28 28 28 28 26 22 22 28 29 26 29 28
15 9 8 5 3 2 4 6 9 6 9 9 8 9 12 12 11 11 10 11 11 11 14 16 18 19 21 22 24 25 25 24 25 26 25 25 24 26 26 28 30 31 30 26 27 28 30 31 32
6 5 6 4 3 1 2 6 10 8 10 11 12 12 13 13 13 11 11 12 12 13 13 16 18 20 22 23 25 25 24 23 23 22 23 23 23 24 26 25 25 23 23 25 25 25 28 32 35
4 7 5 4 1 3 5 6 7 7 9 13 14 15 15 15 14 12 12 11 10 12 14 16 19 20 22 23 24 23 21 19 16 16 17 17 19 22 24 26 25 21 23 24 24 25 25 27 31
9 5 7 6 3 5 8 14 11 9 11 15 15 16 17 18 16 14 14 13 11 14 15 16 17 19 20 21 19 18 15 13 17 15 13 15 17 18 18 20 20 20 22 23 22 23 23 25 26
4 4 7 2 2 5 9 14 13 15 19 21 23 23 22 21 16 14 14 14 14 13 12 12 13 15 16 16 16 19 18 19 18 15 14 13 14 14 15 14 14 15 17 18 19 21 23 24 23
3 5 3 2 2 5 10 18 18 17 23 24 24 24 22 18 14 13 13 11 10 9 8 8 12 14 15 14 18 18 18 17 17 16 13 13 11 13 13 12 11 12 14 15 16 17 21 23 22
6 4 4 3 6 5 10 13 11 7 13 14 14 16 14 13 13 12 11 10 9 7 6 9 11 14 15 17 19 18 17 15 14 13 13 11 10 12 12 12 12 12 13 14 15 15 17 22 22
2 5 3 4 5 4 5 5 10 10 12 9 12 11 10 10 10 11 11 10 9 8 10 10 12 13 15 17 17 17 17 17 15 14 13 12 10 9 10 11 12 12 12 13 14 15 19 23 26
5 3 3 3 4 4 6 3 7 6 8 8 5 10 11 10 11 11 10 9 10 10 10 11 11 13 14 15 15 18 18 18 16 15 15 13 10 9 9 9 10 11 12 12 14 16 18 21 25
4 2 4 3 3 3 2 3 6 3 1 1 1 2 7 9 10 9 9 9 10 11 12 12 12 13 14 15 15 16 18 19 15 14 15 14 13 11 11 12 12 11 11 13 14 16 18 20 22
1 3 2 2 1 3 3 4 12 7 3 2 0 3 3 6 9 9 10 11 11 12 13 13 13 13 14 15 16 16 18 17 14 14 15 15 13 12 13 13 13 13 12 11 14 16 16 19 20
1 3 2 4 2 4 4 6 3 3 5 5 9 5 3 5 7 10 11 12 13 13 14 15 16 16 16 16 16 16 16 15 15 15 15 14 15 14 12 12 13 14 14 13 15 18 19 20 19
3 3 2 1 2 3 4 4 10 2 3 10 10 9 9 7 9 10 11 13 14 15 16 17 19 20 19 18 17 16 15 14 12 14 14 14 15 15 13 12 13 14 15 13 13 16 17 15 14
3 2 1 2 3 5 4 5 5 5 8 8 4 7 7 6 9 11 12 14 14 14 15 18 22 23 22 20 18 16 15 15 14 15 16 15 15 15 16 11 11 10 10 9 10 11 10 9 9
4 3 4 3 3 4 6 3 4 4 5 4 4 3 4 6 7 8 11 13 15 17 21 27 26 25 24 23 19 17 16 16 15 15 15 14 13 15 13 7 8 7 6 6 9 10 11 11 11
6 7 9 4 4 5 5 7 1 4 4 4 4 3 4 6 8 11 14 17 21 26 26 29 26 25 24 23 21 19 18 16 16 14 14 13 12 12 8 6 8 8 6 8 11 12 13 13 13
Wind_Direction
174 170 169 186 213 237 223 176 157 160 146 84 79 10 80 40 12 46 132 124 155 137 163 245 179 192 202 223 235 266 286 313 345 7 12 13 18 124 187 196 181 230 202 24 16 5 324 210 181
164 165 167 203 247 204 188 142 186 162 103 127 109 115 72 80 69 110 104 106 157 163 138 176 35 233 223 232 244 260 272 286 300 333 356 2 333 293 267 249 229 254 216 314 336 334 306 260 239
163 171 178 198 230 218 152 175 132 112 134 139 112 57 72 93 112 104 102 85 140 117 156 197 224 311 236 252 258 271 267 265 269 291 312 322 322 294 279 260 242 244 244 286 308 315 298 264 252
163 169 215 229 206 39 100 150 139 141 127 125 125 92 89 90 123 138 104 127 118 81 153 203 191 292 258 251 257 266 270 268 266 273 289 292 301 302 287 271 252 246 255 279 297 302 293 261 251
183 193 205 220 147 125 116 128 155 159 132 133 149 118 102 108 125 137 115 113 97 157 104 155 177 285 248 248 257 263 268 269 268 268 274 284 281 288 289 277 265 253 253 268 287 293 289 265 243
164 204 204 190 154 143 132 150 172 153 142 127 127 121 110 142 133 150 139 126 141 153 172 177 246 288 299 300 285 278 272 271 269 270 270 271 273 275 277 275 272 266 258 263 276 286 287 273 253
227 205 209 178 152 158 151 158 169 155 146 112 122 130 126 146 157 160 170 164 186 205 219 238 267 270 280 285 277 285 282 277 276 270 269 269 267 266 268 269 265 268 268 264 271 274 279 276 264
235 262 188 161 170 146 148 142 117 164 93 127 106 159 163 168 168 176 191 200 218 233 236 242 255 260 265 278 274 276 283 280 287 278 272 272 271 271 272 272 267 264 265 266 268 269 271 271 268
176 213 188 172 178 143 157 151 151 142 134 133 100 95 120 153 168 165 178 193 219 243 246 256 262 268 269 271 276 278 275 275 276 283 290 279 276 277 276 277 269 270 268 269 268 267 266 266 264
266 225 121 1 45 153 162 165 145 162 156 140 129 120 144 153 160 167 178 202 235 256 269 271 276 278 280 279 277 276 276 273 275 273 268 275 284 278 263 263 266 267 268 268 268 267 267 264 263
39 39 109 61 38 137 146 142 160 185 189 161 173 158 158 166 174 183 216 239 254 265 273 277 280 283 283 282 285 289 280 279 274 273 275 274 271 269 275 276 270 272 273 271 272 270 269 267 260
114 61 81 105 75 150 163 140 170 208 84 143 141 166 175 183 198 216 228 254 265 270 273 279 283 285 286 286 287 287 289 284 281 279 268 272 274 273 276 271 271 275 276 274 262 251 251 262 265
103 113 90 89 87 80 154 168 96 212 182 171 182 198 199 207 220 232 245 259 268 273 280 284 289 290 290 292 290 288 289 285 284 280 281 278 276 273 267 262 261 271 272 255 259 267 263 250 247
116 112 104 76 72 55 266 192 268 204 191 212 222 221 222 229 232 232 248 250 261 273 281 286 288 291 294 294 292 290 287 284 281 282 281 280 278 277 275 272 268 263 259 270 274 261 265 265 259
122 108 116 73 28 62 335 228 230 186 190 212 225 226 227 231 228 230 236 244 253 266 282 290 294 294 295 295 294 294 292 289 287 286 283 279 276 275 275 273 271 269 263 257 257 269 260 261 264
125 165 161 93 338 171 280 267 176 191 211 230 232 232 232 234 234 236 234 252 264 272 287 289 293 296 299 298 298 296 293 289 286 286 284 281 278 274 271 268 267 268 267 261 263 266 273 264 264
191 174 205 153 66 291 225 266 125 208 227 242 240 237 239 239 235 233 238 247 258 277 281 291 297 305 307 309 308 305 304 300 298 294 291 288 283 282 277 270 267 267 265 265 262 264 264 268 266
173 158 192 205 81 261 248 256 255 225 236 243 245 243 243 242 241 247 244 243 252 265 277 289 299 309 310 311 310 306 303 300 290 302 299 294 297 300 292 282 273 267 262 262 263 265 267 266 271
137 160 182 95 7 289 260 271 271 267 251 248 251 252 251 249 249 245 240 237 249 262 275 295 310 318 326 320 309 309 302 296 304 302 293 302 302 307 311 306 292 278 273 271 265 266 269 272 275
160 160 117 123 344 301 300 287 275 257 249 245 249 251 251 250 243 242 230 229 232 241 279 306 319 329 336 332 318 320 317 309 304 305 297 293 303 304 311 303 295 287 280 275 276 272 271 271 273
61 11 57 1 309 237 297 274 255 232 252 253 252 254 252 247 235 218 204 203 212 242 270 309 323 333 335 334 331 330 325 315 307 297 309 308 298 307 305 305 303 293 290 288 282 276 272 277 277
142 28 23 352 343 287 6 292 293 272 252 220 245 228 222 206 191 190 192 202 215 235 282 302 317 329 331 333 332 337 334 325 319 311 309 315 308 294 306 299 297 296 293 285 286 287 281 280 281
60 13 358 325 307 348 189 248 273 274 283 261 230 221 207 197 193 194 201 211 223 256 276 291 310 324 328 331 331 336 339 328 316 314 305 298 298 300 300 295 293 290 292 291 291 290 288 286 288
104 288 266 273 288 261 127 243 283 240 293 337 120 148 183 190 192 199 209 227 242 263 277 289 299 310 317 323 324 330 334 338 327 318 320 307 300 288 289 292 297 296 300 296 292 291 285 284 285
285 291 294 242 225 281 135 244 249 294 244 282 27 127 153 199 208 214 221 240 250 263 277 285 291 297 304 311 318 325 330 339 342 326 318 319 311 290 282 284 286 287 288 286 282 281 285 283 281
35 320 292 272 293 334 151 239 267 352 316 292 243 227 254 246 228 229 236 244 253 263 274 283 288 290 294 304 315 319 321 324 333 338 336 326 317 314 308 302 290 281 280 284 295 294 295 296 294
112 217 45 329 165 267 243 273 270 337 281 263 243 235 250 246 234 242 248 252 258 269 280 284 285 285 287 293 301 307 306 308 314 328 330 335 334 320 303 302 301 283 274 274 284 297 299 301 302
300 94 216 180 292 281 258 253 248 323 349 10 198 238 243 247 255 257 257 261 267 272 282 289 287 281 280 281 288 295 299 300 304 311 319 322 329 327 314 285 301 301 285 274 294 315 306 307 307
162 207 215 298 251 285 301 267 191 250 322 336 5 328 286 276 273 269 268 268 267 268 283 291 281 275 276 272 277 285 291 297 298 299 309 318 323 326 326 285 296 286 288 298 300 305 303 299 302
267 238 221 244 183 243 302 273 253 274 262 261 282 292 297 300 300 292 284 281 283 288 289 292 284 266 272 269 268 276 281 290 290 292 298 303 312 325 334 305 322 306 288 289 290 296 294 290 290